Home > Weather > Durrës > Past weeks

Flag for Albania Weather for the Past 2 Weeks in Durrës, Albania

Now
70 °F

Passing clouds.


Feels Like: 70 °F
Forecast: 59 / 64 °F
Wind: 12 mph from North

Location: Tirana Airport

Current Time: Apr 30, 2016 at 5:38:46 PM

Latest Report: Apr 30, 2016 at 5:20 PM


Visibility: N/A

Pressure: 29.98 "Hg

Humidity: 53%

Dew Point: 52 °F

Location of DurrësLocation

Historic Weather in Durrës — Graph

°F

Durrës Temperature Yesterday

Maximum temperature yesterday: 70 °F (at 3:20 PM)
Minimum temperature yesterday: 54 °F (at 11:50 PM)
Average temperature yesterday: 61 °F

High & Low Weather Summary for the Past Weeks

 TemperatureHumidityPressure
High82 °F (Apr 18, 2:20 PM)94% (Apr 16, 12:50 AM)30.21 "Hg (Apr 16, 12:50 AM)
Low39 °F (Apr 21, 5:50 AM)16% (Apr 21, 1:50 PM)29.50 "Hg (Apr 25, 4:50 PM)
Average61 °F64%29.95 "Hg
* Reported Apr 15 4:20 PM — Apr 30 4:20 PM, Durrës, Weather by CustomWeather, © 2016

Note: Actual official high and low records may vary slightly from our data, if they occured in-between our weather recording intervals... More about our weather records

Advertising

Durrës Weather History for the Previous 24 Hours

Scroll right to see more
 ConditionsComfort  
Time TempWeatherWind HumidityBarometerVisibility
4:20 PM
Sat, Apr 30
70 °FPassing clouds.12 mph57%29.98 "HgN/A
3:50 PM72 °FPassing clouds.12 mph53%29.98 "HgN/A
3:20 PM73 °FPassing clouds.9 mph47%29.98 "HgN/A
2:50 PM72 °FPassing clouds.10 mph50%29.98 "HgN/A
2:20 PM73 °FScattered clouds.9 mph47%29.98 "HgN/A
1:50 PM72 °FScattered clouds.9 mph50%29.98 "HgN/A
1:20 PM73 °FPassing clouds.6 mph47%29.98 "HgN/A
12:50 PM70 °FPassing clouds.7 mph46%29.98 "HgN/A
12:20 PM70 °FPassing clouds.6 mph53%30.01 "HgN/A
11:50 AM72 °FPassing clouds.3 mph53%30.01 "HgN/A
11:20 AM68 °FPassing clouds.3 mph56%30.01 "HgN/A
10:20 AM68 °FPassing clouds.2 mph60%30.04 "HgN/A
9:50 AM66 °FSunny.2 mph60%30.04 "Hg10 mi
9:20 AM64 °FPassing clouds.1 mph68%30.04 "HgN/A
8:50 AM63 °FPassing clouds.3 mph73%30.04 "HgN/A
8:20 AM61 °FSunny.2 mph77%30.04 "Hg10 mi
7:50 AM59 °FPassing clouds.3 mph82%30.04 "HgN/A
7:20 AM57 °FSunny.5 mph88%30.04 "Hg10 mi
6:50 AM54 °FSunny.7 mph94%30.01 "Hg10 mi
6:20 AM52 °FClear.2 mph94%30.01 "Hg10 mi
5:50 AM50 °FClear.2 mph94%30.01 "Hg4 mi
5:20 AM50 °FClear.2 mph94%30.01 "Hg10 mi
4:20 AM52 °FClear.3 mph94%30.01 "Hg10 mi
3:50 AM52 °FClear.2 mph94%30.01 "Hg10 mi
3:20 AM52 °FClear.3 mph94%30.01 "Hg10 mi
2:50 AM52 °FClear.3 mph94%30.01 "Hg10 mi
2:20 AM54 °FClear.3 mph94%30.01 "Hg10 mi
1:50 AM54 °FClear.5 mph88%30.01 "Hg10 mi
1:20 AM54 °FClear.2 mph88%30.04 "Hg10 mi
12:50 AM54 °FClear.3 mph94%30.04 "Hg10 mi
12:20 AM54 °FClear.No wind94%30.04 "Hg10 mi
11:50 PM
Fri, Apr 29
54 °FClear.3 mph88%30.04 "Hg10 mi
11:20 PM55 °FClear.2 mph88%30.04 "Hg10 mi
10:20 PM55 °FPassing clouds.2 mph88%30.01 "HgN/A
9:50 PM57 °FClear.No wind82%30.01 "Hg10 mi
9:20 PM59 °FClear.2 mph77%30.01 "Hg10 mi
8:50 PM59 °FClear.2 mph77%30.01 "Hg10 mi
8:20 PM59 °FSunny.2 mph77%30.01 "Hg10 mi
7:50 PM59 °FPassing clouds.5 mph77%30.01 "HgN/A
7:20 PM63 °FPassing clouds.7 mph68%29.98 "HgN/A
6:50 PM63 °FPassing clouds.8 mph73%29.98 "HgN/A
6:20 PM64 °FPassing clouds.12 mph64%29.98 "HgN/A
5:50 PM66 °FPassing clouds.10 mph60%29.98 "HgN/A
5:20 PM66 °FPassing clouds.10 mph56%29.98 "HgN/A
Weather by CustomWeather, © 2016

See weather overviewHow to use our weather pages